Location: Unspecified
(48.7670°N, 0.0000°E)
Time: 17:17:41
(UTC+00:00)

Vanguard 2 Rocket - Pass Details

Date: 24 June 2019
Orbit: 553 x 3327 km, 32.9° (Epoch: 16 August)

Event Time Altitude Azimuth Distance (km) Brightness Sun altitude
Rises 02:05:04 0° 266° (W) 5,337 10.5 -12.8°
Reaches altitude 10° 02:08:44 10° 255° (WSW) 4,711 10.1 -12.5°
Maximum altitude 02:20:11 30° 202° (SSW) 4,198 9.7 -11.5°
Drops below altitude 10° 02:35:21 10° 152° (SSE) 6,246 10.9 -10.1°
Sets 02:41:20 0° 143° (SE) 7,304 11.3 -9.6°
